Tracking 23762 objects as of 21-Oct-2021
HD Live streaming from Space Station
objects crossing your sky now

ARIANE 42P DEB

Track ARIANE 42P DEB now!
10-day predictions


NORAD ID: 44508
Int'l Code: 1992-052F
Perigee: 1,110.4 km
Apogee: 1,700.4 km
Inclination: 66.0 °
Period: 113.7 minutes
Semi major axis: 7776 km
RCS: Unknown
Launch date: August 10, 1992
Source: France (FR)
Launch site: FRENCH GUIANA (FRGUI)

Note: This is SATELLITE DEBRIS
aabbcc
Your satellite tracking list
Your tracking list is empty




NASA's NSSDC Master Catalog

Two Line Element Set (TLE):
1 44508U 92052F   21293.97326366  .00002616  00000-0  10720-1 0  9994
2 44508  66.0452 246.6704 0379317 314.1087  42.9279 12.65999193101109
Source of the keplerian elements: AFSPC